TimeCDT,TemperatureF,Dew PointF,Humidity,Sea Level PressureIn,VisibilityMPH,Wind Direction,Wind SpeedMPH,Gust SpeedMPH,PrecipitationIn,Events,Conditions,WindDirDegrees,DateUTC
12:54 AM,79.0,72.0,79,29.91,10.0,SE,6.9,-,N/A,,Partly Cloudy,140,2013-07-09 05:54:00
1:54 AM,79.0,72.0,79,29.92,10.0,SSE,6.9,-,N/A,,Scattered Clouds,150,2013-07-09 06:54:00
2:54 AM,78.1,71.1,79,29.91,10.0,South,6.9,-,N/A,,Overcast,180,2013-07-09 07:54:00
3:54 AM,77.0,70.0,79,29.89,10.0,South,8.1,-,N/A,,Scattered Clouds,170,2013-07-09 08:54:00
4:54 AM,78.1,70.0,76,29.90,10.0,SSW,6.9,-,N/A,,Overcast,210,2013-07-09 09:54:00
5:54 AM,78.1,71.1,79,29.92,7.0,SW,11.5,-,0.04,Rain,Light Rain,220,2013-07-09 10:54:00
6:54 AM,77.0,71.1,82,29.90,10.0,South,9.2,-,0.01,,Mostly Cloudy,180,2013-07-09 11:54:00
7:54 AM,77.0,71.1,82,29.88,10.0,South,13.8,-,0.00,,Mostly Cloudy,170,2013-07-09 12:54:00
8:54 AM,77.0,71.1,82,29.90,10.0,SW,9.2,-,0.00,Rain,Light Rain,230,2013-07-09 13:54:00
9:54 AM,79.0,71.1,77,29.94,10.0,North,5.8,-,0.00,,Overcast,360,2013-07-09 14:54:00
10:20 AM,80.1,71.1,74,29.97,10.0,West,6.9,-,0.00,Rain-Thunderstorm,Light Thunderstorms and Rain,280,2013-07-09 15:20:00
10:42 AM,79.0,71.1,77,29.95,10.0,South,5.8,-,0.01,Rain,Light Rain,180,2013-07-09 15:42:00
10:54 AM,79.0,73.0,82,29.89,10.0,SSE,12.7,-,0.01,,Overcast,160,2013-07-09 15:54:00
11:54 AM,82.9,75.0,77,29.89,10.0,South,11.5,-,0.00,,Partly Cloudy,180,2013-07-09 16:54:00
12:54 PM,87.1,73.9,65,29.88,10.0,SSW,10.4,-,N/A,,Partly Cloudy,210,2013-07-09 17:54:00
1:54 PM,91.0,75.0,59,29.87,10.0,SSW,15.0,-,N/A,,Partly Cloudy,200,2013-07-09 18:54:00
2:54 PM,91.9,73.9,55,29.86,10.0,SW,10.4,-,N/A,,Partly Cloudy,230,2013-07-09 19:54:00
3:54 PM,91.9,73.9,55,29.86,10.0,SW,9.2,-,N/A,,Partly Cloudy,220,2013-07-09 20:54:00
4:54 PM,93.0,75.0,56,29.85,10.0,SW,10.4,-,N/A,,Partly Cloudy,230,2013-07-09 21:54:00
5:54 PM,93.0,73.9,54,29.84,10.0,WSW,8.1,-,N/A,,Partly Cloudy,240,2013-07-09 22:54:00
6:54 PM,91.9,75.0,58,29.84,10.0,SW,8.1,-,N/A,,Partly Cloudy,230,2013-07-09 23:54:00
7:54 PM,90.0,75.9,63,29.84,10.0,SW,6.9,-,N/A,,Partly Cloudy,230,2013-07-10 00:54:00
8:54 PM,88.0,75.9,67,29.85,10.0,WSW,4.6,-,N/A,,Partly Cloudy,240,2013-07-10 01:54:00
9:54 PM,86.0,75.9,72,29.87,10.0,Calm,Calm,-,N/A,,Partly Cloudy,0,2013-07-10 02:54:00
10:54 PM,84.9,75.0,72,29.87,10.0,NNW,5.8,-,N/A,,Clear,340,2013-07-10 03:54:00
11:54 PM,84.0,73.0,69,29.88,10.0,North,8.1,-,N/A,,Partly Cloudy,360,2013-07-10 04:54:00